Terminal Aerodrome Forecast
Issued by NWS Sterling, VA

Current Version | Previous Version | Graphics & Text | Print | Product List | Glossary On
Versions: 1 2 3 4 5 6 7 8 9 10 11 12 13 14 15 16 17 18 19 20 21 22 23
000
FTUS41 KLWX 180000 AAA
TAFDCA
TAF AMD
KDCA 180043Z 1801/1824 10006KT P6SM SKC
     FM180300 VRB03KT P6SM BKN110
     FM181900 21004KT P6SM SCT035 BKN070=

USA.gov is the U.S. government's official web portal to all federal, state and local government web resources and services.